Location: Navajo
(48.7922°N, 105.0603°W)
Time: 11:29:25
(UTC+00:00)

KKS-1 - Pass Details

Date: 08 July 2022
Orbit: 634 x 649 km, 98.2° (Epoch: 18 August)

Event Time Altitude Azimuth Distance (km) Brightness Sun altitude
Rises 05:01:36 0° 15° (NNE) 2,976 ? -13.6°
Reaches altitude 10° 05:03:50 10° 18° (NNE) 2,059 ? -13.7°
Maximum altitude 05:08:19 70° 102° (ESE) 688 ? -14.1°
Enters shadow 05:11:32 19° 185° (S) 1,551 ? -14.3°
